| time (UTC) | temp F | wind direction | speed knots | gust knots | rain 1hr in | rain 24hr in | rain mn in | humidity % | barometer mb |
| 20260906093556 | 70 | 291 | 0.0 | 0.0 | 0.00 | 0.00 | 0.00 | 99 | 1011.4 |
| 20260906093051 | 70 | 289 | 0.0 | 0.0 | 0.00 | 0.00 | 0.00 | 99 | 1011.4 |
| 20260906092546 | 70 | 289 | 0.0 | 0.0 | 0.00 | 0.00 | 0.00 | 99 | 1010.9 |
| 20260906092041 | 70 | 289 | 0.0 | 0.0 | 0.00 | 0.00 | 0.00 | 99 | 1011.1 |
| 20260906091537 | 70 | 288 | 0.0 | 0.0 | 0.00 | 0.00 | 0.00 | 99 | 1010.9 |
| 20260906091034 | 70 | 288 | 0.0 | 0.0 | 0.00 | 0.00 | 0.00 | 99 | 1011.0 |
| 20260906090533 | 70 | 288 | 0.0 | 0.0 | 0.00 | 0.00 | 0.00 | 99 | 1010.8 |
| 20260906090028 | 70 | 288 | 0.0 | 0.0 | 0.00 | 0.00 | 0.00 | 99 | 1011.2 |
| 20260906085527 | 70 | 288 | 0.0 | 0.0 | 0.00 | 0.00 | 0.00 | 99 | 1011.0 |
| 20260906085027 | 70 | 283 | 0.0 | 0.0 | 0.00 | 0.00 | 0.00 | 99 | 1010.9 |
| 20260906084522 | 70 | 301 | 0.0 | 0.0 | 0.00 | 0.00 | 0.00 | 99 | 1011.3 |
| 20260906084021 | 70 | 302 | 0.0 | 0.0 | 0.00 | 0.00 | 0.00 | 99 | 1011.1 |
| 20260906083517 | 70 | 303 | 0.0 | 0.0 | 0.00 | 0.00 | 0.00 | 99 | 1011.2 |
| 20260906083016 | 70 | 265 | 0.0 | 0.0 | 0.00 | 0.00 | 0.00 | 99 | 1010.9 |
| 20260906082511 | 70 | 200 | 0.0 | 0.0 | 0.00 | 0.00 | 0.00 | 99 | 1011.0 |
| 20260906082007 | 70 | 256 | 0.0 | 0.0 | 0.00 | 0.00 | 0.00 | 99 | 1011.0 |
| 20260906081503 | 70 | 312 | 0.0 | 0.0 | 0.00 | 0.00 | 0.00 | 99 | 1011.1 |
| 20260906080958 | 70 | 323 | 0.0 | 0.0 | 0.00 | 0.00 | 0.00 | 99 | 1010.7 |
| 20260906080455 | 70 | 332 | 0.0 | 0.0 | 0.00 | 0.00 | 0.00 | 99 | 1010.5 |
| 20260906075955 | 70 | 328 | 0.0 | 0.0 | 0.00 | 0.00 | 0.00 | 99 | 1010.9 |
| 20260906075449 | 70 | 331 | 0.0 | 0.0 | 0.00 | 0.00 | 0.00 | 99 | 1010.9 |
| 20260906074944 | 70 | 330 | 0.0 | 0.0 | 0.00 | 0.00 | 0.00 | 99 | 1010.8 |
| 20260906074439 | 70 | 330 | 0.0 | 0.0 | 0.00 | 0.00 | 0.00 | 99 | 1010.8 |
| 20260906073938 | 70 | 330 | 0.0 | 0.0 | 0.00 | 0.00 | 0.00 | 99 | 1010.8 |
| 20260906073433 | 70 | 330 | 0.0 | 0.0 | 0.00 | 0.00 | 0.00 | 99 | 1010.8 |
| 20260906072929 | 70 | 330 | 0.0 | 0.0 | 0.00 | 0.00 | 0.00 | 99 | 1010.8 |
| 20260906072424 | 70 | 330 | 0.0 | 0.0 | 0.00 | 0.00 | 0.00 | 99 | 1010.7 |
| 20260906071919 | 70 | 331 | 0.0 | 0.0 | 0.00 | 0.00 | 0.00 | 99 | 1011.0 |
| 20260906071415 | 70 | 330 | 0.0 | 0.0 | 0.00 | 0.00 | 0.00 | 99 | 1011.0 |
| 20260906070911 | 70 | 317 | 0.0 | 0.0 | 0.00 | 0.00 | 0.00 | 99 | 1010.9 |
| 20260906070402 | 70 | 317 | 0.0 | 0.0 | 0.00 | 0.00 | 0.00 | 99 | 1010.8 |
| 20260906065856 | 70 | 319 | 0.0 | 0.0 | 0.00 | 0.00 | 0.00 | 99 | 1010.9 |
| 20260906065350 | 70 | 293 | 0.0 | 0.0 | 0.00 | 0.00 | 0.00 | 99 | 1011.0 |
| 20260906064846 | 70 | 291 | 0.0 | 0.0 | 0.00 | 0.00 | 0.00 | 99 | 1011.1 |
| 20260906064343 | 70 | 324 | 0.0 | 0.0 | 0.00 | 0.00 | 0.00 | 99 | 1010.9 |
| 20260906063836 | 70 | 324 | 0.0 | 0.0 | 0.00 | 0.00 | 0.00 | 99 | 1011.0 |
| 20260906063332 | 70 | 327 | 0.0 | 0.0 | 0.00 | 0.00 | 0.00 | 99 | 1011.2 |
| 20260906062827 | 70 | 335 | 0.0 | 0.0 | 0.00 | 0.00 | 0.00 | 99 | 1011.1 |
| 20260906062326 | 70 | 328 | 0.0 | 0.0 | 0.00 | 0.00 | 0.00 | 99 | 1011.1 |
| 20260906061822 | 70 | 327 | 0.0 | 0.0 | 0.00 | 0.00 | 0.00 | 99 | 1011.2 |
| 20260906061318 | 70 | 313 | 0.0 | 0.0 | 0.00 | 0.00 | 0.00 | 99 | 1011.2 |
| 20260906060812 | 70 | 307 | 0.0 | 0.0 | 0.00 | 0.00 | 0.00 | 99 | 1011.3 |
| 20260906060310 | 70 | 330 | 0.0 | 0.0 | 0.00 | 0.00 | 0.00 | 99 | 1011.3 |
| 20260906055806 | 70 | 325 | 0.0 | 0.0 | 0.00 | 0.00 | 0.00 | 99 | 1011.2 |
| 20260906055301 | 70 | 324 | 0.0 | 0.0 | 0.00 | 0.00 | 0.00 | 99 | 1011.4 |
| 20260906054756 | 70 | 325 | 0.0 | 0.0 | 0.00 | 0.00 | 0.00 | 99 | 1011.5 |
| 20260906054251 | 71 | 310 | 0.0 | 0.0 | 0.00 | 0.00 | 0.00 | 99 | 1011.5 |
| 20260906053748 | 70 | 320 | 0.0 | 0.0 | 0.00 | 0.00 | 0.00 | 99 | 1011.8 |
| 20260906053243 | 71 | 337 | 0.0 | 0.0 | 0.00 | 0.00 | 0.00 | 99 | 1011.7 |
| 20260906052738 | 71 | 330 | 0.0 | 0.0 | 0.00 | 0.00 | 0.00 | 99 | 1011.8 |
| 20260906052235 | 71 | 310 | 0.0 | 0.0 | 0.00 | 0.00 | 0.00 | 99 | 1011.6 |
| 20260906051731 | 71 | 324 | 0.0 | 0.0 | 0.00 | 0.00 | 0.00 | 99 | 1011.8 |
| 20260906051231 | 71 | 319 | 0.0 | 0.0 | 0.00 | 0.00 | 0.00 | 99 | 1011.7 |
| 20260906050726 | 71 | 338 | 0.0 | 0.0 | 0.00 | 0.00 | 0.00 | 99 | 1012.0 |
| 20260906050221 | 71 | 336 | 0.0 | 0.0 | 0.00 | 0.00 | 0.00 | 99 | 1011.9 |
| 20260906045720 | 71 | 323 | 0.0 | 0.0 | 0.00 | 0.00 | 0.00 | 99 | 1012.0 |
| 20260906045215 | 71 | 348 | 0.0 | 0.0 | 0.00 | 0.00 | 0.00 | 99 | 1012.2 |
| 20260906044711 | 71 | 353 | 0.0 | 0.0 | 0.00 | 0.00 | 0.00 | 99 | 1012.0 |
| 20260906044206 | 71 | 319 | 0.0 | 0.0 | 0.00 | 0.00 | 0.00 | 99 | 1012.0 |
| 20260906043702 | 71 | 320 | 0.0 | 0.0 | 0.00 | 0.00 | 0.00 | 99 | 1011.8 |
| 20260906043157 | 71 | 320 | 0.0 | 0.0 | 0.00 | 0.00 | 0.00 | 99 | 1011.7 |
| 20260906042657 | 71 | 332 | 0.0 | 0.0 | 0.00 | 0.00 | 0.00 | 99 | 1011.9 |
| 20260906042151 | 71 | 330 | 0.0 | 0.0 | 0.00 | 0.00 | 0.00 | 99 | 1011.8 |
| 20260906041647 | 71 | 332 | 0.0 | 0.0 | 0.00 | 0.00 | 0.00 | 99 | 1011.9 |
| 20260906041142 | 71 | 332 | 0.0 | 0.0 | 0.00 | 0.00 | 0.00 | 99 | 1011.9 |
| 20260906040637 | 71 | 332 | 0.0 | 0.0 | 0.00 | 0.00 | 0.00 | 99 | 1011.9 |
| 20260906040133 | 71 | 332 | 0.0 | 0.0 | 0.00 | 0.00 | 0.00 | 99 | 1012.0 |
| 20260906035628 | 71 | 332 | 0.0 | 0.0 | 0.00 | 0.87 | 0.87 | 99 | 1012.0 |
| 20260906035123 | 71 | 332 | 0.0 | 0.0 | 0.00 | 0.87 | 0.87 | 99 | 1011.9 |
| 20260906034618 | 71 | 345 | 0.0 | 0.0 | 0.00 | 0.87 | 0.87 | 99 | 1012.0 |
| 20260906034112 | 71 | 346 | 0.0 | 0.0 | 0.00 | 0.87 | 0.87 | 99 | 1011.9 |
| 20260906033608 | 71 | 346 | 0.0 | 0.0 | 0.00 | 0.87 | 0.87 | 99 | 1012.1 |
| 20260906033102 | 71 | 20 | 0.0 | 0.0 | 0.00 | 0.87 | 0.87 | 99 | 1012.1 |
| 20260906032559 | 71 | 331 | 0.0 | 0.0 | 0.00 | 0.87 | 0.87 | 99 | 1012.0 |
| 20260906032053 | 71 | 331 | 0.0 | 0.0 | 0.00 | 0.87 | 0.87 | 99 | 1012.3 |
| 20260906031549 | 71 | 331 | 0.0 | 0.0 | 0.00 | 0.87 | 0.87 | 99 | 1012.7 |
| 20260906031045 | 71 | 331 | 0.0 | 0.0 | 0.00 | 0.87 | 0.87 | 99 | 1012.3 |
| 20260906030544 | 71 | 313 | 0.0 | 0.0 | 0.00 | 0.87 | 0.87 | 99 | 1012.4 |
| 20260906030043 | 71 | 344 | 0.0 | 0.0 | 0.00 | 0.87 | 0.87 | 99 | 1012.6 |
| 20260906025538 | 71 | 5 | 0.0 | 0.0 | 0.00 | 0.87 | 0.87 | 99 | 1012.6 |
| 20260906025036 | 71 | 332 | 0.0 | 0.0 | 0.00 | 0.87 | 0.87 | 99 | 1012.9 |
| 20260906024531 | 71 | 12 | 0.0 | 0.0 | 0.00 | 0.87 | 0.87 | 99 | 1012.8 |
| 20260906024025 | 71 | 343 | 0.0 | 0.0 | 0.00 | 0.87 | 0.87 | 99 | 1012.9 |
| 20260906023522 | 71 | 346 | 0.0 | 0.0 | 0.00 | 0.87 | 0.87 | 99 | 1012.9 |
| 20260906023016 | 71 | 341 | 0.0 | 0.0 | 0.00 | 0.87 | 0.87 | 99 | 1013.0 |
| 20260906022511 | 71 | 323 | 0.0 | 0.0 | 0.00 | 0.87 | 0.87 | 99 | 1013.1 |
| 20260906022007 | 72 | 330 | 0.9 | 0.9 | 0.00 | 0.87 | 0.87 | 99 | 1013.1 |
| 20260906021502 | 72 | 341 | 0.0 | 0.0 | 0.00 | 0.87 | 0.87 | 99 | 1013.1 |
| 20260906020956 | 72 | 274 | 0.0 | 0.0 | 0.00 | 0.87 | 0.87 | 99 | 1012.8 |
| 20260906020451 | 72 | 320 | 0.0 | 0.0 | 0.00 | 0.87 | 0.87 | 99 | 1012.7 |
| 20260906015950 | 72 | 357 | 0.0 | 0.0 | 0.00 | 0.87 | 0.87 | 99 | 1012.6 |
| 20260906015449 | 72 | 332 | 0.0 | 0.0 | 0.00 | 0.87 | 0.87 | 99 | 1012.4 |
| 20260906014949 | 72 | 338 | 0.0 | 0.0 | 0.00 | 0.87 | 0.87 | 99 | 1012.3 |
| 20260906014449 | 72 | 318 | 0.0 | 0.0 | 0.00 | 0.87 | 0.87 | 99 | 1012.3 |
| 20260906013945 | 72 | 326 | 0.0 | 0.0 | 0.00 | 0.87 | 0.87 | 99 | 1011.9 |
| 20260906013440 | 72 | 300 | 0.0 | 0.0 | 0.00 | 0.87 | 0.87 | 99 | 1011.7 |
| 20260906012936 | 72 | 276 | 0.0 | 0.0 | 0.00 | 0.87 | 0.87 | 99 | 1011.8 |
| 20260906012431 | 72 | 331 | 0.0 | 0.0 | 0.00 | 0.87 | 0.87 | 99 | 1011.7 |
| 20260906011930 | 72 | 269 | 0.0 | 0.0 | 0.00 | 0.87 | 0.87 | 99 | 1011.7 |
| 20260906011426 | 72 | 191 | 2.6 | 2.6 | 0.00 | 0.87 | 0.87 | 99 | 1011.4 |
| 20260906010921 | 72 | 356 | 0.0 | 0.0 | 0.00 | 0.87 | 0.87 | 99 | 1011.1 |
| 20260906010416 | 72 | 356 | 0.0 | 0.0 | 0.00 | 0.87 | 0.87 | 99 | 1011.1 |
| 20260906005912 | 72 | 339 | 0.0 | 0.0 | 0.00 | 0.87 | 0.87 | 99 | 1011.1 |
| 20260906005412 | 72 | 13 | 0.0 | 0.0 | 0.00 | 0.87 | 0.87 | 99 | 1011.2 |
| 20260906004910 | 72 | 355 | 0.0 | 0.0 | 0.00 | 0.87 | 0.87 | 99 | 1011.1 |
| 20260906004404 | 72 | 301 | 0.0 | 0.0 | 0.00 | 0.87 | 0.87 | 99 | 1011.2 |
| 20260906003854 | 72 | 299 | 0.0 | 0.0 | 0.00 | 0.87 | 0.87 | 99 | 1011.1 |
| 20260906003349 | 72 | 333 | 0.0 | 0.0 | 0.00 | 0.87 | 0.87 | 99 | 1011.0 |
| 20260906002845 | 72 | 341 | 0.0 | 0.0 | 0.00 | 0.87 | 0.87 | 99 | 1010.8 |
| 20260906002344 | 72 | 329 | 0.0 | 0.0 | 0.00 | 0.87 | 0.87 | 99 | 1010.9 |
| 20260906001840 | 72 | 262 | 0.0 | 0.0 | 0.00 | 0.87 | 0.87 | 99 | 1011.1 |
| 20260906001335 | 72 | 342 | 0.0 | 0.0 | 0.00 | 0.87 | 0.87 | 99 | 1011.3 |
| 20260906000830 | 72 | 3 | 0.0 | 0.0 | 0.00 | 0.87 | 0.87 | 99 | 1011.3 |
| 20260906000326 | 72 | 269 | 0.0 | 0.0 | 0.00 | 0.87 | 0.87 | 99 | 1011.3 |
| 20260905235825 | 72 | 289 | 0.0 | 0.0 | 0.00 | 0.87 | 0.87 | 99 | 1011.5 |
| 20260905235320 | 72 | 269 | 0.0 | 0.0 | 0.00 | 0.87 | 0.87 | 99 | 1011.4 |
| 20260905234816 | 72 | 294 | 0.0 | 0.0 | 0.00 | 0.87 | 0.87 | 99 | 1011.6 |
| 20260905234311 | 72 | 317 | 0.0 | 0.0 | 0.00 | 0.87 | 0.87 | 99 | 1011.7 |
| 20260905233805 | 72 | 350 | 0.0 | 0.0 | 0.00 | 0.87 | 0.87 | 99 | 1012.1 |
| 20260905233300 | 72 | 298 | 0.0 | 0.0 | 0.00 | 0.87 | 0.87 | 99 | 1012.0 |
| 20260905232759 | 72 | 205 | 0.9 | 0.9 | 0.00 | 0.87 | 0.87 | 99 | 1012.0 |
| 20260905232255 | 72 | 211 | 1.7 | 1.7 | 0.00 | 0.87 | 0.87 | 99 | 1011.7 |
| 20260905231751 | 71 | 336 | 0.9 | 0.9 | 0.00 | 0.87 | 0.87 | 99 | 1012.0 |
| 20260905231246 | 71 | 252 | 0.9 | 0.9 | 0.00 | 0.87 | 0.87 | 99 | 1012.0 |
| 20260905230743 | 71 | 287 | 0.0 | 0.0 | 0.00 | 0.87 | 0.87 | 99 | 1011.9 |
| 20260905230240 | 71 | 161 | 0.9 | 0.9 | 0.00 | 0.87 | 0.87 | 99 | 1011.6 |
| 20260905225740 | 71 | 284 | 0.0 | 0.0 | 0.00 | 0.87 | 0.87 | 98 | 1011.7 |
| 20260905225235 | 71 | 250 | 1.7 | 1.7 | 0.07 | 0.87 | 0.87 | 98 | 1011.5 |
| 20260905224734 | 72 | 247 | 1.7 | 1.7 | 0.19 | 0.87 | 0.87 | 98 | 1011.8 |
| 20260905224230 | 72 | 309 | 0.0 | 0.0 | 0.85 | 0.86 | 0.86 | 98 | 1011.9 |
| 20260905223726 | 72 | 191 | 0.0 | 0.0 | 1.87 | 0.84 | 0.84 | 97 | 1012.0 |
| 20260905223223 | 72 | 339 | 0.0 | 0.0 | 2.20 | 0.74 | 0.74 | 96 | 1012.2 |
| 20260905222718 | 73 | 350 | 4.3 | 5.2 | 2.46 | 0.56 | 0.56 | 95 | 1012.9 |
| 20260905222217 | 74 | 330 | 4.3 | 7.0 | 1.87 | 0.37 | 0.37 | 93 | 1013.0 |
| 20260905221713 | 76 | 338 | 2.6 | 5.2 | 0.78 | 0.15 | 0.15 | 90 | 1012.1 |
| 20260905221210 | 78 | 288 | 1.7 | 2.6 | 0.35 | 0.06 | 0.06 | 86 | 1011.6 |
| 20260905220705 | 86 | 347 | 5.2 | 7.8 | 0.05 | 0.01 | 0.01 | 72 | 1010.9 |
| 20260905220201 | 91 | 358 | 10.4 | 15.6 | 0.00 | 0.00 | 0.00 | 61 | 1011.3 |
| 20260905215700 | 96 | 343 | 3.5 | 4.3 | 0.00 | 0.00 | 0.00 | 53 | 1010.8 |
| 20260905215156 | 96 | 315 | 0.0 | 0.0 | 0.00 | 0.00 | 0.00 | 52 | 1010.2 |
| 20260905214652 | 97 | 179 | 0.9 | 0.9 | 0.00 | 0.00 | 0.00 | 51 | 1010.2 |
| 20260905214147 | 97 | 274 | 0.0 | 0.0 | 0.00 | 0.00 | 0.00 | 50 | 1010.2 |
| 20260905213642 | 97 | 353 | 0.0 | 0.0 | 0.00 | 0.00 | 0.00 | 50 | 1010.1 |
| 20260905213138 | 97 | 263 | 0.0 | 0.9 | 0.00 | 0.00 | 0.00 | 52 | 1009.8 |
| 20260905212633 | 97 | 210 | 0.9 | 0.9 | 0.00 | 0.00 | 0.00 | 50 | 1009.7 |
| 20260905212132 | 97 | 198 | 1.7 | 1.7 | 0.00 | 0.00 | 0.00 | 51 | 1009.6 |
| 20260905211627 | 98 | 160 | 3.5 | 5.2 | 0.00 | 0.00 | 0.00 | 50 | 1009.8 |
| 20260905211123 | 98 | 172 | 1.7 | 1.7 | 0.00 | 0.00 | 0.00 | 50 | 1009.9 |
| 20260905210620 | 98 | 187 | 1.7 | 1.7 | 0.00 | 0.00 | 0.00 | 49 | 1009.7 |
| 20260905210114 | 99 | 133 | 3.5 | 4.3 | 0.00 | 0.00 | 0.00 | 49 | 1010.1 |
| 20260905205612 | 99 | 75 | 2.6 | 4.3 | 0.00 | 0.00 | 0.00 | 48 | 1009.8 |
| 20260905205107 | 99 | 112 | 2.6 | 4.3 | 0.00 | 0.00 | 0.00 | 47 | 1009.6 |
| 20260905204606 | 99 | 151 | 5.2 | 6.1 | 0.00 | 0.00 | 0.00 | 48 | 1009.6 |
| 20260905204101 | 99 | 75 | 2.6 | 2.6 | 0.00 | 0.00 | 0.00 | 48 | 1009.8 |
| 20260905203556 | 99 | 200 | 1.7 | 1.7 | 0.00 | 0.00 | 0.00 | 48 | 1009.9 |
| 20260905203051 | 100 | 147 | 2.6 | 2.6 | 0.00 | 0.00 | 0.00 | 47 | 1009.9 |
| 20260905202546 | 101 | 119 | 3.5 | 4.3 | 0.00 | 0.00 | 0.00 | 46 | 1009.8 |
| 20260905202042 | 101 | 106 | 3.5 | 4.3 | 0.00 | 0.00 | 0.00 | 45 | 1010.0 |
| 20260905201537 | 100 | 205 | 2.6 | 2.6 | 0.00 | 0.00 | 0.00 | 47 | 1009.9 |
| 20260905201037 | 100 | 178 | 1.7 | 2.6 | 0.00 | 0.00 | 0.00 | 46 | 1010.0 |
| 20260905200532 | 101 | 145 | 2.6 | 4.3 | 0.00 | 0.00 | 0.00 | 47 | 1010.1 |
| 20260905200032 | 100 | 272 | 1.7 | 1.7 | 0.00 | 0.00 | 0.00 | 48 | 1010.1 |
| 20260905195526 | 99 | 255 | 0.0 | 0.0 | 0.00 | 0.00 | 0.00 | 49 | 1010.2 |
| 20260905195021 | 100 | 181 | 3.5 | 5.2 | 0.00 | 0.00 | 0.00 | 46 | 1010.2 |
| 20260905194515 | 100 | 226 | 1.7 | 1.7 | 0.00 | 0.00 | 0.00 | 47 | 1010.2 |
| 20260905194010 | 99 | 250 | 0.0 | 0.9 | 0.00 | 0.00 | 0.00 | 49 | 1010.4 |
| 20260905193510 | 100 | 188 | 2.6 | 2.6 | 0.00 | 0.00 | 0.00 | 48 | 1010.4 |
| 20260905193005 | 99 | 167 | 2.6 | 2.6 | 0.00 | 0.00 | 0.00 | 48 | 1010.5 |
| 20260905192500 | 99 | 193 | 3.5 | 5.2 | 0.00 | 0.00 | 0.00 | 49 | 1010.5 |
| 20260905191956 | 99 | 193 | 4.3 | 6.1 | 0.00 | 0.00 | 0.00 | 49 | 1010.7 |
| 20260905191450 | 99 | 165 | 5.2 | 6.1 | 0.00 | 0.00 | 0.00 | 50 | 1010.6 |
| 20260905190949 | 99 | 180 | 1.7 | 2.6 | 0.00 | 0.00 | 0.00 | 50 | 1010.8 |
| 20260905190447 | 98 | 208 | 2.6 | 2.6 | 0.00 | 0.00 | 0.00 | 50 | 1010.6 |
| 20260905185946 | 98 | 235 | 1.7 | 1.7 | 0.00 | 0.00 | 0.00 | 51 | 1010.9 |
| 20260905185441 | 98 | 148 | 0.9 | 1.7 | 0.00 | 0.00 | 0.00 | 51 | 1010.9 |
| 20260905184940 | 99 | 115 | 2.6 | 4.3 | 0.00 | 0.00 | 0.00 | 50 | 1010.9 |
| 20260905184440 | 99 | 207 | 2.6 | 2.6 | 0.00 | 0.00 | 0.00 | 51 | 1011.1 |
| 20260905183938 | 100 | 210 | 3.5 | 4.3 | 0.00 | 0.00 | 0.00 | 50 | 1011.3 |
| 20260905183433 | 98 | 330 | 1.7 | 1.7 | 0.00 | 0.00 | 0.00 | 52 | 1011.6 |
| 20260905182928 | 98 | 348 | 0.9 | 0.9 | 0.00 | 0.00 | 0.00 | 52 | 1011.5 |
| 20260905182427 | 99 | 87 | 2.6 | 2.6 | 0.00 | 0.00 | 0.00 | 52 | 1011.5 |
| 20260905181923 | 98 | 265 | 1.7 | 1.7 | 0.00 | 0.00 | 0.00 | 53 | 1011.3 |
| 20260905181418 | 99 | 158 | 2.6 | 2.6 | 0.00 | 0.00 | 0.00 | 52 | 1011.5 |
| 20260905180917 | 98 | 256 | 1.7 | 1.7 | 0.00 | 0.00 | 0.00 | 53 | 1011.8 |
| 20260905180412 | 97 | 249 | 0.0 | 0.0 | 0.00 | 0.00 | 0.00 | 54 | 1011.7 |
| 20260905175912 | 97 | 313 | 0.9 | 0.9 | 0.00 | 0.00 | 0.00 | 56 | 1011.9 |
| 20260905175412 | 96 | 282 | 1.7 | 1.7 | 0.00 | 0.00 | 0.00 | 58 | 1012.3 |
| 20260905174907 | 95 | 333 | 1.7 | 1.7 | 0.00 | 0.00 | 0.00 | 59 | 1012.3 |
| 20260905174403 | 95 | 332 | 0.9 | 0.9 | 0.00 | 0.00 | 0.00 | 58 | 1012.3 |
| 20260905173859 | 96 | 340 | 1.7 | 1.7 | 0.00 | 0.00 | 0.00 | 58 | 1012.4 |
| 20260905173355 | 95 | 352 | 0.9 | 0.9 | 0.00 | 0.00 | 0.00 | 58 | 1012.3 |
| 20260905172850 | 94 | 281 | 0.9 | 0.9 | 0.00 | 0.00 | 0.00 | 60 | 1012.6 |
| 20260905172347 | 95 | 327 | 0.9 | 0.9 | 0.00 | 0.00 | 0.00 | 59 | 1012.2 |
| 20260905171844 | 96 | 344 | 0.9 | 1.7 | 0.00 | 0.00 | 0.00 | 57 | 1012.6 |
| 20260905171340 | 96 | 228 | 2.6 | 2.6 | 0.00 | 0.00 | 0.00 | 56 | 1012.6 |
| 20260905170836 | 95 | 24 | 0.9 | 0.9 | 0.00 | 0.00 | 0.00 | 60 | 1012.6 |
| 20260905170333 | 94 | 271 | 0.0 | 0.9 | 0.00 | 0.00 | 0.00 | 60 | 1012.9 |
| 20260905165831 | 95 | 138 | 3.5 | 4.3 | 0.00 | 0.00 | 0.00 | 59 | 1012.8 |
| 20260905165327 | 95 | 154 | 2.6 | 2.6 | 0.00 | 0.00 | 0.00 | 59 | 1012.8 |
| 20260905164827 | 95 | 152 | 4.3 | 5.2 | 0.00 | 0.00 | 0.00 | 59 | 1012.9 |
| 20260905164322 | 96 | 194 | 4.3 | 7.0 | 0.00 | 0.00 | 0.00 | 58 | 1013.1 |
| 20260905163817 | 94 | 334 | 1.7 | 1.7 | 0.00 | 0.00 | 0.00 | 61 | 1013.1 |
| 20260905163314 | 94 | 209 | 0.9 | 0.9 | 0.00 | 0.00 | 0.00 | 61 | 1013.6 |
| 20260905162809 | 95 | 147 | 2.6 | 4.3 | 0.00 | 0.00 | 0.00 | 59 | 1013.4 |
| 20260905162309 | 95 | 185 | 0.9 | 1.7 | 0.00 | 0.00 | 0.00 | 61 | 1013.5 |
| 20260905161803 | 94 | 63 | 0.0 | 0.9 | 0.00 | 0.00 | 0.00 | 61 | 1013.5 |
| 20260905161302 | 94 | 131 | 0.9 | 2.6 | 0.00 | 0.00 | 0.00 | 61 | 1013.6 |
| 20260905160755 | 93 | 98 | 1.7 | 1.7 | 0.00 | 0.00 | 0.00 | 63 | 1013.7 |
| 20260905160249 | 93 | 16 | 0.9 | 1.7 | 0.00 | 0.00 | 0.00 | 64 | 1013.8 |
| 20260905155744 | 93 | 64 | 0.9 | 0.9 | 0.00 | 0.00 | 0.00 | 63 | 1013.8 |
| 20260905155243 | 93 | 203 | 0.9 | 0.9 | 0.00 | 0.00 | 0.00 | 65 | 1013.9 |
| 20260905154737 | 92 | 344 | 0.9 | 2.6 | 0.00 | 0.00 | 0.00 | 67 | 1013.9 |
| 20260905154234 | 92 | 11 | 2.6 | 4.3 | 0.00 | 0.00 | 0.00 | 65 | 1013.9 |
| 20260905153729 | 92 | 60 | 0.9 | 0.9 | 0.00 | 0.00 | 0.00 | 68 | 1014.2 |
| 20260905153224 | 92 | 167 | 1.7 | 1.7 | 0.00 | 0.00 | 0.00 | 67 | 1014.3 |
| 20260905152719 | 91 | 237 | 0.9 | 1.7 | 0.00 | 0.00 | 0.00 | 69 | 1014.0 |
| 20260905152219 | 91 | 325 | 2.6 | 2.6 | 0.00 | 0.00 | 0.00 | 68 | 1014.1 |
| 20260905151713 | 91 | 168 | 1.7 | 1.7 | 0.00 | 0.00 | 0.00 | 69 | 1014.2 |
| 20260905151210 | 91 | 298 | 2.6 | 2.6 | 0.00 | 0.00 | 0.00 | 69 | 1014.2 |
| 20260905150704 | 90 | 273 | 0.0 | 0.0 | 0.00 | 0.00 | 0.00 | 71 | 1014.2 |
| 20260905150203 | 89 | 11 | 0.9 | 0.9 | 0.00 | 0.00 | 0.00 | 73 | 1014.4 |
| 20260905145701 | 90 | 133 | 0.9 | 0.9 | 0.00 | 0.00 | 0.00 | 71 | 1014.5 |
| 20260905145201 | 89 | 5 | 0.9 | 1.7 | 0.00 | 0.00 | 0.00 | 73 | 1014.2 |
| 20260905144654 | 88 | 119 | 0.9 | 1.7 | 0.00 | 0.00 | 0.00 | 74 | 1014.5 |
| 20260905144149 | 87 | 313 | 3.5 | 4.3 | 0.00 | 0.00 | 0.00 | 75 | 1014.5 |
| 20260905143648 | 87 | 167 | 0.9 | 0.9 | 0.00 | 0.00 | 0.00 | 75 | 1014.5 |
| 20260905143143 | 86 | 325 | 3.5 | 4.3 | 0.00 | 0.00 | 0.00 | 77 | 1014.5 |
| 20260905142642 | 86 | 307 | 1.7 | 2.6 | 0.00 | 0.00 | 0.00 | 79 | 1014.5 |
| 20260905142137 | 85 | 331 | 0.9 | 0.9 | 0.00 | 0.00 | 0.00 | 80 | 1014.9 |
| 20260905141637 | 84 | 329 | 0.9 | 1.7 | 0.00 | 0.00 | 0.00 | 83 | 1014.7 |
| 20260905141133 | 84 | 53 | 0.0 | 0.0 | 0.00 | 0.00 | 0.00 | 83 | 1014.6 |
| 20260905140628 | 83 | 23 | 2.6 | 2.6 | 0.00 | 0.00 | 0.00 | 84 | 1014.6 |
| 20260905140127 | 83 | 205 | 1.7 | 1.7 | 0.00 | 0.00 | 0.00 | 85 | 1014.6 |
| 20260905135622 | 83 | 10 | 0.0 | 0.9 | 0.00 | 0.00 | 0.00 | 86 | 1014.8 |
| 20260905135118 | 82 | 302 | 2.6 | 2.6 | 0.00 | 0.00 | 0.00 | 87 | 1014.8 |
| 20260905134613 | 82 | 313 | 1.7 | 1.7 | 0.00 | 0.00 | 0.00 | 89 | 1014.8 |
| 20260905134111 | 81 | 12 | 0.0 | 0.0 | 0.00 | 0.00 | 0.00 | 90 | 1015.0 |
| 20260905133607 | 81 | 287 | 1.7 | 1.7 | 0.00 | 0.00 | 0.00 | 91 | 1014.9 |
| 20260905133106 | 80 | 147 | 2.6 | 2.6 | 0.00 | 0.00 | 0.00 | 93 | 1014.9 |
| 20260905132606 | 79 | 271 | 0.9 | 0.9 | 0.00 | 0.00 | 0.00 | 94 | 1014.7 |
| 20260905132100 | 79 | 333 | 1.7 | 1.7 | 0.00 | 0.00 | 0.00 | 95 | 1014.8 |
| 20260905131556 | 78 | 311 | 0.9 | 0.9 | 0.00 | 0.00 | 0.00 | 97 | 1015.1 |
| 20260905131051 | 78 | 351 | 1.7 | 1.7 | 0.00 | 0.00 | 0.00 | 98 | 1015.0 |
| 20260905130550 | 77 | 139 | 2.6 | 2.6 | 0.00 | 0.00 | 0.00 | 99 | 1015.1 |
| 20260905130046 | 77 | 352 | 2.6 | 2.6 | 0.00 | 0.00 | 0.00 | 99 | 1015.0 |
| 20260905125545 | 76 | 312 | 1.7 | 1.7 | 0.00 | 0.00 | 0.00 | 99 | 1015.0 |
| 20260905125041 | 76 | 340 | 2.6 | 2.6 | 0.00 | 0.00 | 0.00 | 99 | 1014.8 |
| 20260905124537 | 76 | 344 | 0.9 | 0.9 | 0.00 | 0.00 | 0.00 | 99 | 1014.9 |
| 20260905124033 | 76 | 20 | 0.9 | 0.9 | 0.00 | 0.00 | 0.00 | 99 | 1014.8 |
| 20260905123523 | 75 | 19 | 0.9 | 0.9 | 0.00 | 0.00 | 0.00 | 99 | 1014.7 |
| 20260905123019 | 75 | 329 | 0.0 | 0.0 | 0.00 | 0.00 | 0.00 | 99 | 1014.8 |
| 20260905122514 | 75 | 332 | 0.0 | 0.0 | 0.00 | 0.00 | 0.00 | 99 | 1014.6 |
| 20260905122009 | 75 | 276 | 0.0 | 0.0 | 0.00 | 0.00 | 0.00 | 99 | 1014.4 |
| 20260905121503 | 75 | 292 | 0.0 | 0.0 | 0.00 | 0.00 | 0.00 | 99 | 1014.8 |
| 20260905121002 | 75 | 327 | 0.0 | 0.0 | 0.00 | 0.00 | 0.00 | 99 | 1014.6 |
| 20260905120456 | 75 | 327 | 0.0 | 0.0 | 0.00 | 0.00 | 0.00 | 99 | 1014.7 |
| 20260905115952 | 75 | 332 | 0.0 | 0.0 | 0.00 | 0.00 | 0.00 | 99 | 1014.9 |
| 20260905115451 | 74 | 87 | 0.0 | 0.0 | 0.00 | 0.00 | 0.00 | 99 | 1014.6 |
| 20260905114946 | 74 | 124 | 0.0 | 0.0 | 0.00 | 0.00 | 0.00 | 99 | 1014.5 |
| 20260905114446 | 74 | 124 | 0.0 | 0.0 | 0.00 | 0.00 | 0.00 | 99 | 1014.5 |
| 20260905113944 | 74 | 138 | 0.0 | 0.0 | 0.00 | 0.00 | 0.00 | 99 | 1014.4 |
| 20260905113440 | 74 | 138 | 0.0 | 0.0 | 0.00 | 0.00 | 0.00 | 99 | 1014.5 |
| 20260905112935 | 74 | 140 | 0.0 | 0.0 | 0.00 | 0.00 | 0.00 | 99 | 1014.4 |
| 20260905112431 | 74 | 142 | 0.0 | 0.0 | 0.00 | 0.00 | 0.00 | 99 | 1014.3 |
| 20260905111925 | 74 | 146 | 0.0 | 0.0 | 0.00 | 0.00 | 0.00 | 99 | 1014.3 |
| 20260905111420 | 74 | 146 | 0.0 | 0.0 | 0.00 | 0.00 | 0.00 | 99 | 1014.1 |
| 20260905110914 | 74 | 270 | 0.0 | 0.0 | 0.00 | 0.00 | 0.00 | 99 | 1014.3 |
| 20260905110408 | 74 | 150 | 0.0 | 0.0 | 0.00 | 0.00 | 0.00 | 99 | 1014.4 |
| 20260905105903 | 74 | 174 | 0.0 | 0.0 | 0.00 | 0.00 | 0.00 | 99 | 1014.4 |
| 20260905105402 | 74 | 174 | 0.0 | 0.0 | 0.00 | 0.00 | 0.00 | 99 | 1014.2 |
| 20260905104856 | 74 | 174 | 0.0 | 0.0 | 0.00 | 0.00 | 0.00 | 99 | 1014.1 |
| 20260905104353 | 74 | 174 | 0.0 | 0.0 | 0.00 | 0.00 | 0.00 | 99 | 1014.1 |
| 20260905103847 | 74 | 177 | 0.0 | 0.0 | 0.00 | 0.00 | 0.00 | 99 | 1014.0 |
| 20260905103343 | 74 | 176 | 0.0 | 0.0 | 0.00 | 0.00 | 0.00 | 99 | 1014.2 |
| 20260905102838 | 74 | 176 | 0.0 | 0.0 | 0.00 | 0.00 | 0.00 | 99 | 1013.9 |
| 20260905102334 | 74 | 176 | 0.0 | 0.0 | 0.00 | 0.00 | 0.00 | 99 | 1013.9 |
| 20260905101829 | 73 | 176 | 0.0 | 0.0 | 0.00 | 0.00 | 0.00 | 99 | 1014.1 |
| 20260905101327 | 73 | 176 | 0.0 | 0.0 | 0.00 | 0.00 | 0.00 | 99 | 1013.8 |
| 20260905100822 | 74 | 176 | 0.0 | 0.0 | 0.00 | 0.00 | 0.00 | 99 | 1013.8 |
| 20260905100317 | 74 | 176 | 0.0 | 0.0 | 0.00 | 0.00 | 0.00 | 99 | 1013.8 |
| 20260905095817 | 74 | 176 | 0.0 | 0.0 | 0.00 | 0.00 | 0.00 | 99 | 1013.6 |
| 20260905095311 | 74 | 176 | 0.0 | 0.0 | 0.00 | 0.00 | 0.00 | 99 | 1013.8 |
| 20260905094806 | 74 | 175 | 0.0 | 0.0 | 0.00 | 0.00 | 0.00 | 99 | 1013.7 |
| 20260905094302 | 74 | 172 | 0.0 | 0.0 | 0.00 | 0.00 | 0.00 | 99 | 1014.0 |